Regional Weather Roundup
Issued by NWS

Home | Current Version | Previous Version | Text Only | Print | Product List | Glossary Off
Versions: 1 2 3 4 5 6 7 8 9 10 11 12 13 14 15 16 17 18 19 20 21 22 23 24 25 26 27 28 29 30 31 32 33 34 35 36 37 38 39 40 41 42 43 44 45 46 47 48 49 50

479
ASUS43 KTOP 200859
RWRKS

WEATHER ROUNDUP FOR KANSAS
NATIONAL WEATHER SERVICE GOODLAND KS
300 AM CST TUE FEB 20 2018

NOTE:  "FAIR" INDICATES FEW OR NO CLOUDS BELOW 12,000 FEET WITH NO
SIGNIFICANT WEATHER AND/OR OBSTRUCTIONS TO VISIBILITY.

KSZ001>006-013>018-027>032-041>047-201000-
NORTHWEST KANSAS

CITY           SKY/WX    TMP DP  RH WIND       PRES   REMARKS
GOODLAND       LGT SNOW   7   3  84 N20G26    29.85S FOG     WCI -13
HAYS           LGT SNOW  16  13  88 MISG      29.91R FOG
HILL CITY      CLOUDY    14   9  80 N17       29.93R WCI  -3
RUSSELL        FRZ RAIN  19  17  92 N17G41    29.89R FOG     WCI   4
$$

KSZ061>065-074>080-084>089-201000-
SOUTHWEST KANSAS

CITY           SKY/WX    TMP DP  RH WIND       PRES   REMARKS
DODGE CITY     CLOUDY    18  15  88 N20G31    29.82R FOG     WCI   2
GARDEN CITY    LGT SNOW  15  13  91 N20       29.85R FOG     WCI  -2
GREAT BEND     MIX PCPN  19  17  92 MISG      29.86F FOG
LIBERAL        CLOUDY    20  17  88 N22       29.80R WCI   3
$$

KSZ066>073-081>083-090>101-201000-
SOUTHEAST KANSAS

CITY           SKY/WX    TMP DP  RH WIND       PRES   REMARKS
CHANUTE        FOG       35  35 100 N7        29.78F VSB 3/4
COFFEYVILLE    FOG       40  40 100 N5        29.78S VSB 3/4
HUTCHINSON     FRZ RAIN  22  21  96 N10G22    29.86R FOG     WCI  11
MEDICINE LODGE   N/A     25  24  96 N17G29    29.79F WCI  12
NEWTON         CLOUDY    25  24  96 N15       29.84R FOG     WCI  13
PARSONS        FOG       38  38 100 N5        29.79S VSB 3/4
WICHITA INTL   LGT SNOW  28  27  96 N16G24    29.83R FOG     WCI  16
WICHITA JABRA  FRZ RAIN  28  28 100 N18       29.83R FOG     WCI  15
WICHITA MCCONL FRZ RAIN  28  28  99 N9        29.83  FOG
WINFIELD       CLOUDY    32  32 100 N13       29.80R FOG     WCI  22
$$

KSZ007>012-019>026-033>040-048>060-102>105-201000-
NORTHEAST KANSAS

CITY           SKY/WX    TMP DP  RH WIND       PRES   REMARKS
CONCORDIA      FRZ RAIN  19  17  92 N14       29.90R FOG     WCI   6
EMPORIA        CLOUDY    28  27  96 N7        29.82R FOG
LAWRENCE       CLOUDY    30  29  96 NW9       29.83S FOG
MANHATTAN      FRZ RAIN  26  23  88 N8        29.87F FOG
OLATHE IND     CLOUDY    30  30 100 N8        29.81F FOG
OLATHE EXE     FRZ RAIN  30  30 100 VRB6      29.80F FOG
SALINA         MIX PCPN  22  20  92 N18       29.90R FOG     WCI   7
TOPEKA BILLARD FRZ RAIN  28  28 100 N7G20     29.84R FOG
TOPEKA FORBES  MIX PCPN  28  27  96 N8        29.82R FOG
$$




USA.gov is the U.S. government's official web portal to all federal, state and local government web resources and services.